Location: Big Prairie
(40.6673°N, 82.0952°W)
Time: 19:19:39
(UTC+00:00)

USA 229 DEB - Pass Details

Date: 03 December 2021
Orbit: 943 x 1269 km, 63.4° (Epoch: 14 January)

Event Time Altitude Azimuth Distance (km) Brightness Sun altitude
Rises 22:33:29 0° 327° (NNW) 3,975 6.8 -6.3°
Reaches altitude 10° 22:36:10 10° 331° (NNW) 3,058 6.2 -6.8°
Maximum altitude 22:43:30 63° 52° (NE) 1,343 4.0 -8.0°
Drops below altitude 10° 22:51:14 10° 132° (SE) 3,227 6.0 -9.4°
Sets 22:54:07 0° 136° (SE) 4,208 6.6 -9.9°
